Time,TemperatureF,DewpointF,PressureIn,WindDirection,WindDirectionDegrees,WindSpeedMPH,WindSpeedGustMPH,Humidity,HourlyPrecipIn,Conditions,Clouds,dailyrainin,SoftwareType,DateUTC
2013-02-01 00:04:00,33.0,-99.9,29.92,WNW,283,2.0,4.0,-999,-99.99,,,-99.99,,2013-02-01 05:04:00,
2013-02-01 00:12:00,33.0,-99.9,29.92,North,-999,-999.0,-999.0,-999,-99.99,,,-99.99,,2013-02-01 05:12:00,
2013-02-01 00:22:00,-999.0,-99.9,29.92,WSW,255,4.0,6.0,-999,-99.99,,,-99.99,,2013-02-01 05:22:00,
2013-02-01 00:32:00,-999.0,-99.9,29.92,SW,223,5.0,8.0,-999,-99.99,,,-99.99,,2013-02-01 05:32:00,
2013-02-01 00:42:00,-999.0,-99.9,29.91,South,182,7.0,8.0,-999,-99.99,,,-99.99,,2013-02-01 05:42:00,
2013-02-01 00:52:00,34.0,-99.9,29.90,North,-999,-999.0,-999.0,-999,-99.99,,,-99.99,,2013-02-01 05:52:00,
2013-02-01 01:02:00,33.0,-99.9,29.89,SSW,194,4.0,6.0,-999,-99.99,,,-99.99,,2013-02-01 06:02:00,
2013-02-01 01:12:00,33.0,-99.9,29.90,North,-999,-999.0,-999.0,-999,-99.99,,,-99.99,,2013-02-01 06:12:00,
2013-02-01 01:22:00,33.0,-99.9,29.89,North,-999,-999.0,-999.0,-999,-99.99,,,-99.99,,2013-02-01 06:22:00,
2013-02-01 01:32:00,33.0,-99.9,29.89,SSE,153,4.0,4.0,-999,-99.99,,,-99.99,,2013-02-01 06:32:00,
2013-02-01 01:42:00,33.0,-99.9,29.89,SE,139,4.0,6.0,-999,-99.99,,,-99.99,,2013-02-01 06:42:00,
2013-02-01 01:52:00,-999.0,-99.9,29.89,SE,145,5.0,7.0,-999,-99.99,,,-99.99,,2013-02-01 06:52:00,
2013-02-01 02:02:00,33.0,-99.9,29.90,SSE,161,5.0,5.0,-999,-99.99,,,-99.99,,2013-02-01 07:02:00,
2013-02-01 02:12:00,-999.0,-99.9,29.90,SSE,147,5.0,7.0,-999,-99.99,,,-99.99,,2013-02-01 07:12:00,
2013-02-01 02:22:00,33.0,-99.9,29.89,North,-999,-999.0,-999.0,-999,-99.99,,,-99.99,,2013-02-01 07:22:00,
2013-02-01 02:32:00,33.0,-99.9,29.89,SSE,150,5.0,7.0,-999,-99.99,,,-99.99,,2013-02-01 07:32:00,
2013-02-01 02:42:00,33.0,-99.9,29.89,SSE,151,5.0,7.0,-999,-99.99,,,-99.99,,2013-02-01 07:42:00,
2013-02-01 02:52:00,-999.0,-99.9,29.89,SSE,154,7.0,9.0,-999,-99.99,,,-99.99,,2013-02-01 07:52:00,
2013-02-01 03:01:00,33.0,-99.9,29.87,SE,144,6.0,7.0,-999,-99.99,,,-99.99,,2013-02-01 08:01:00,
2013-02-01 03:11:00,33.0,-99.9,29.87,North,-999,-999.0,-999.0,-999,-99.99,,,-99.99,,2013-02-01 08:11:00,
2013-02-01 03:22:00,33.0,-99.9,29.86,North,-999,-999.0,-999.0,-999,-99.99,,,-99.99,,2013-02-01 08:22:00,
2013-02-01 03:32:00,33.0,-99.9,29.86,SSE,163,4.0,6.0,-999,-99.99,,,-99.99,,2013-02-01 08:32:00,
2013-02-01 03:42:00,33.0,-99.9,29.86,North,-999,-999.0,-999.0,-999,-99.99,,,-99.99,,2013-02-01 08:42:00,
2013-02-01 03:52:00,33.0,-99.9,29.85,North,-999,-999.0,-999.0,-999,-99.99,,,-99.99,,2013-02-01 08:52:00,
2013-02-01 04:02:00,33.0,-99.9,29.84,SE,144,5.0,6.0,-999,-99.99,,,-99.99,,2013-02-01 09:02:00,
2013-02-01 04:11:00,33.0,-99.9,29.83,SE,134,4.0,6.0,-999,-99.99,,,-99.99,,2013-02-01 09:11:00,
2013-02-01 04:22:00,-999.0,-99.9,29.83,SSE,149,3.0,7.0,-999,-99.99,,,-99.99,,2013-02-01 09:22:00,
2013-02-01 04:32:00,34.0,-99.9,29.82,SSE,150,6.0,8.0,-999,-99.99,,,-99.99,,2013-02-01 09:32:00,
2013-02-01 04:42:00,34.0,-99.9,29.82,North,-999,-999.0,-999.0,-999,-99.99,,,-99.99,,2013-02-01 09:42:00,
2013-02-01 04:52:00,35.0,-99.9,29.82,North,-999,-999.0,-999.0,-999,-99.99,,,-99.99,,2013-02-01 09:52:00,
2013-02-01 05:01:00,35.0,-99.9,29.81,SSW,209,5.0,7.0,-999,-99.99,,,-99.99,,2013-02-01 10:01:00,
2013-02-01 05:11:00,-999.0,-99.9,29.81,SSW,204,7.0,10.0,-999,-99.99,,,-99.99,,2013-02-01 10:11:00,
2013-02-01 05:21:00,-999.0,-99.9,29.81,South,186,9.0,12.0,-999,-99.99,,,-99.99,,2013-02-01 10:21:00,
2013-02-01 05:32:00,36.0,-99.9,29.81,South,186,9.0,11.0,-999,-99.99,,,-99.99,,2013-02-01 10:32:00,
2013-02-01 05:43:00,-999.0,-99.9,29.81,SSW,199,10.0,15.0,-999,-99.99,,,-99.99,,2013-02-01 10:43:00,
2013-02-01 05:53:00,34.0,-99.9,29.81,North,-999,-999.0,-999.0,-999,-99.99,,,-99.99,,2013-02-01 10:53:00,
2013-02-01 06:02:00,34.0,-99.9,29.81,SW,227,7.0,11.0,-999,-99.99,,,-99.99,,2013-02-01 11:02:00,
2013-02-01 06:12:00,33.0,-99.9,29.82,SW,216,6.0,8.0,-999,-99.99,,,-99.99,,2013-02-01 11:12:00,
2013-02-01 06:22:00,-999.0,-99.9,29.83,SW,230,5.0,7.0,-999,-99.99,,,-99.99,,2013-02-01 11:22:00,
2013-02-01 06:32:00,35.0,-99.9,29.84,NW,324,12.0,15.0,-999,-99.99,,,-99.99,,2013-02-01 11:32:00,
2013-02-01 06:42:00,34.0,-99.9,29.85,North,-999,-999.0,-999.0,-999,-99.99,,,-99.99,,2013-02-01 11:42:00,
2013-02-01 06:53:00,-999.0,-99.9,29.87,WNW,300,11.0,22.0,-999,-99.99,,,-99.99,,2013-02-01 11:53:00,
2013-02-01 07:03:00,32.0,-99.9,29.89,NW,315,17.0,24.0,-999,-99.99,,,-99.99,,2013-02-01 12:03:00,
2013-02-01 07:12:00,-999.0,-99.9,29.90,NNW,329,14.0,27.0,-999,-99.99,,,-99.99,,2013-02-01 12:12:00,
2013-02-01 07:23:00,-999.0,-99.9,29.91,NW,323,12.0,30.0,-999,-99.99,,,-99.99,,2013-02-01 12:23:00,
2013-02-01 07:32:00,29.0,-99.9,29.92,NW,322,17.0,28.0,-999,-99.99,,,-99.99,,2013-02-01 12:32:00,
2013-02-01 07:42:00,29.0,-99.9,29.92,North,351,10.0,26.0,-999,-99.99,,,-99.99,,2013-02-01 12:42:00,
2013-02-01 07:52:00,-999.0,-99.9,29.92,NNW,342,12.0,22.0,-999,-99.99,,,-99.99,,2013-02-01 12:52:00,
2013-02-01 08:02:00,30.0,-99.9,29.93,NNW,335,13.0,20.0,-999,-99.99,,,-99.99,,2013-02-01 13:02:00,
2013-02-01 08:12:00,-999.0,-99.9,29.93,NW,325,10.0,15.0,-999,-99.99,,,-99.99,,2013-02-01 13:12:00,
2013-02-01 08:22:00,30.0,-99.9,29.95,North,-999,-999.0,-999.0,-999,-99.99,,,-99.99,,2013-02-01 13:22:00,
2013-02-01 08:33:00,30.0,-99.9,29.96,NNW,333,13.0,20.0,-999,-99.99,,,-99.99,,2013-02-01 13:33:00,
2013-02-01 08:43:00,30.0,-99.9,29.96,North,-999,-999.0,-999.0,-999,-99.99,,,-99.99,,2013-02-01 13:43:00,
2013-02-01 08:53:00,30.0,-99.9,29.97,North,-999,-999.0,-999.0,-999,-99.99,,,-99.99,,2013-02-01 13:53:00,
2013-02-01 09:04:00,30.0,-99.9,29.98,NW,321,17.0,23.0,-999,-99.99,,,-99.99,,2013-02-01 14:04:00,
2013-02-01 09:12:00,30.0,-99.9,29.99,NNW,335,21.0,26.0,-999,-99.99,,,-99.99,,2013-02-01 14:12:00,
2013-02-01 09:22:00,-999.0,-99.9,30.01,NW,322,25.0,34.0,-999,-99.99,,,-99.99,,2013-02-01 14:22:00,
2013-02-01 09:33:00,29.0,-99.9,30.02,NW,307,16.0,26.0,-999,-99.99,,,-99.99,,2013-02-01 14:33:00,
2013-02-01 09:42:00,-999.0,-99.9,30.02,NW,315,22.0,38.0,-999,-99.99,,,-99.99,,2013-02-01 14:42:00,
2013-02-01 09:53:00,29.0,-99.9,30.04,North,-999,-999.0,-999.0,-999,-99.99,,,-99.99,,2013-02-01 14:53:00,
2013-02-01 10:03:00,29.0,-99.9,30.04,NW,326,28.0,37.0,-999,-99.99,,,-99.99,,2013-02-01 15:03:00,
2013-02-01 10:12:00,29.0,-99.9,30.04,North,-999,-999.0,-999.0,-999,-99.99,,,-99.99,,2013-02-01 15:12:00,
2013-02-01 10:22:00,28.0,-99.9,30.06,North,-999,-999.0,-999.0,-999,-99.99,,,-99.99,,2013-02-01 15:22:00,
2013-02-01 10:33:00,28.0,-99.9,30.07,NW,311,23.0,32.0,-999,-99.99,,,-99.99,,2013-02-01 15:33:00,
2013-02-01 10:42:00,28.0,-99.9,30.08,NW,317,26.0,36.0,-999,-99.99,,,-99.99,,2013-02-01 15:42:00,
2013-02-01 10:52:00,-999.0,-99.9,30.08,NW,305,23.0,30.0,-999,-99.99,,,-99.99,,2013-02-01 15:52:00,
2013-02-01 11:03:00,28.0,-99.9,30.09,NW,306,16.0,25.0,-999,-99.99,,,-99.99,,2013-02-01 16:03:00,
2013-02-01 11:12:00,28.0,-99.9,30.09,NW,309,19.0,27.0,-999,-99.99,,,-99.99,,2013-02-01 16:12:00,
2013-02-01 11:22:00,-999.0,-99.9,30.10,NW,308,20.0,29.0,-999,-99.99,,,-99.99,,2013-02-01 16:22:00,
2013-02-01 11:33:00,29.0,-99.9,30.11,NW,320,15.0,29.0,-999,-99.99,,,-99.99,,2013-02-01 16:33:00,
2013-02-01 11:43:00,-999.0,-99.9,30.11,NW,326,18.0,33.0,-999,-99.99,,,-99.99,,2013-02-01 16:43:00,
2013-02-01 11:53:00,-999.0,-99.9,30.12,NW,313,23.0,32.0,-999,-99.99,,,-99.99,,2013-02-01 16:53:00,
2013-02-01 12:03:00,28.0,-99.9,30.12,NW,304,22.0,28.0,-999,-99.99,,,-99.99,,2013-02-01 17:03:00,
2013-02-01 12:12:00,29.0,-99.9,30.13,NW,324,19.0,34.0,-999,-99.99,,,-99.99,,2013-02-01 17:12:00,
2013-02-01 12:22:00,28.0,-99.9,30.13,North,-999,-999.0,-999.0,-999,-99.99,,,-99.99,,2013-02-01 17:22:00,
2013-02-01 12:32:00,28.0,-99.9,30.14,NW,317,20.0,27.0,-999,-99.99,,,-99.99,,2013-02-01 17:32:00,
2013-02-01 12:42:00,28.0,-99.9,30.14,North,-999,-999.0,-999.0,-999,-99.99,,,-99.99,,2013-02-01 17:42:00,
2013-02-01 12:53:00,27.0,-99.9,30.14,North,-999,-999.0,-999.0,-999,-99.99,,,-99.99,,2013-02-01 17:53:00,
2013-02-01 13:03:00,27.0,-99.9,30.15,NW,316,21.0,25.0,-999,-99.99,,,-99.99,,2013-02-01 18:03:00,
2013-02-01 13:13:00,-999.0,-99.9,30.15,WNW,303,16.0,24.0,-999,-99.99,,,-99.99,,2013-02-01 18:13:00,
2013-02-01 13:23:00,27.0,-99.9,30.15,North,-999,-999.0,-999.0,-999,-99.99,,,-99.99,,2013-02-01 18:23:00,
2013-02-01 13:33:00,28.0,-99.9,30.15,WNW,303,18.0,26.0,-999,-99.99,,,-99.99,,2013-02-01 18:33:00,
2013-02-01 13:42:00,28.0,-99.9,30.15,North,-999,-999.0,-999.0,-999,-99.99,,,-99.99,,2013-02-01 18:42:00,
2013-02-01 13:53:00,28.0,-99.9,30.16,North,-999,-999.0,-999.0,-999,-99.99,,,-99.99,,2013-02-01 18:53:00,
2013-02-01 14:03:00,-999.0,-99.9,30.16,NW,316,20.0,30.0,-999,-99.99,,,-99.99,,2013-02-01 19:03:00,
2013-02-01 14:12:00,-999.0,-99.9,30.16,NW,304,16.0,21.0,-999,-99.99,,,-99.99,,2013-02-01 19:12:00,
2013-02-01 14:22:00,-999.0,-99.9,30.16,NW,307,18.0,29.0,-999,-99.99,,,-99.99,,2013-02-01 19:22:00,
2013-02-01 14:33:00,28.0,-99.9,30.16,NW,317,22.0,28.0,-999,-99.99,,,-99.99,,2013-02-01 19:33:00,
2013-02-01 14:42:00,27.0,-99.9,30.17,WNW,290,18.0,26.0,-999,-99.99,,,-99.99,,2013-02-01 19:42:00,
2013-02-01 14:52:00,-999.0,-99.9,30.18,NW,304,18.0,28.0,-999,-99.99,,,-99.99,,2013-02-01 19:52:00,
2013-02-01 15:02:00,27.0,-99.9,30.18,WNW,297,21.0,26.0,-999,-99.99,,,-99.99,,2013-02-01 20:02:00,
2013-02-01 15:12:00,27.0,-99.9,30.19,North,-999,-999.0,-999.0,-999,-99.99,,,-99.99,,2013-02-01 20:12:00,
2013-02-01 15:22:00,28.0,-99.9,30.19,North,-999,-999.0,-999.0,-999,-99.99,,,-99.99,,2013-02-01 20:22:00,
2013-02-01 15:32:00,28.0,-99.9,30.19,NNW,343,12.0,26.0,-999,-99.99,,,-99.99,,2013-02-01 20:32:00,
2013-02-01 15:42:00,28.0,-99.9,30.20,WNW,292,19.0,25.0,-999,-99.99,,,-99.99,,2013-02-01 20:42:00,
2013-02-01 15:52:00,28.0,-99.9,30.20,North,-999,-999.0,-999.0,-999,-99.99,,,-99.99,,2013-02-01 20:52:00,
2013-02-01 16:02:00,28.0,-99.9,30.21,NW,323,20.0,29.0,-999,-99.99,,,-99.99,,2013-02-01 21:02:00,
2013-02-01 16:12:00,-999.0,-99.9,30.21,NW,308,16.0,20.0,-999,-99.99,,,-99.99,,2013-02-01 21:12:00,
2013-02-01 16:22:00,27.0,-99.9,30.22,North,-999,-999.0,-999.0,-999,-99.99,,,-99.99,,2013-02-01 21:22:00,
2013-02-01 16:32:00,27.0,-99.9,30.23,NW,305,19.0,24.0,-999,-99.99,,,-99.99,,2013-02-01 21:32:00,
2013-02-01 16:42:00,-999.0,-99.9,30.23,WNW,301,19.0,27.0,-999,-99.99,,,-99.99,,2013-02-01 21:42:00,
2013-02-01 16:53:00,27.0,-99.9,30.23,North,-999,-999.0,-999.0,-999,-99.99,,,-99.99,,2013-02-01 21:53:00,
2013-02-01 17:03:00,28.0,-99.9,30.24,NW,319,18.0,28.0,-999,-99.99,,,-99.99,,2013-02-01 22:03:00,
2013-02-01 17:11:00,28.0,-99.9,30.24,NW,311,23.0,27.0,-999,-99.99,,,-99.99,,2013-02-01 22:11:00,
2013-02-01 17:22:00,-999.0,-99.9,30.25,NW,317,14.0,25.0,-999,-99.99,,,-99.99,,2013-02-01 22:22:00,
2013-02-01 17:32:00,28.0,-99.9,30.25,NW,313,14.0,24.0,-999,-99.99,,,-99.99,,2013-02-01 22:32:00,
2013-02-01 17:42:00,27.0,-99.9,30.26,North,-999,-999.0,-999.0,-999,-99.99,,,-99.99,,2013-02-01 22:42:00,
2013-02-01 17:52:00,27.0,-99.9,30.26,North,-999,-999.0,-999.0,-999,-99.99,,,-99.99,,2013-02-01 22:52:00,
2013-02-01 18:02:00,27.0,-99.9,30.27,NW,313,17.0,28.0,-999,-99.99,,,-99.99,,2013-02-01 23:02:00,
2013-02-01 18:11:00,26.0,-99.9,30.28,WNW,289,16.0,23.0,-999,-99.99,,,-99.99,,2013-02-01 23:11:00,
2013-02-01 18:22:00,26.0,-99.9,30.28,North,-999,-999.0,-999.0,-999,-99.99,,,-99.99,,2013-02-01 23:22:00,
2013-02-01 18:32:00,26.0,-99.9,30.29,WNW,303,15.0,23.0,-999,-99.99,,,-99.99,,2013-02-01 23:32:00,
2013-02-01 18:42:00,26.0,-99.9,30.29,North,-999,-999.0,-999.0,-999,-99.99,,,-99.99,,2013-02-01 23:42:00,
2013-02-01 18:52:00,-999.0,-99.9,30.30,NW,310,13.0,22.0,-999,-99.99,,,-99.99,,2013-02-01 23:52:00,
2013-02-01 19:02:00,26.0,-99.9,30.31,WNW,301,13.0,21.0,-999,-99.99,,,-99.99,,2013-02-02 00:02:00,
2013-02-01 19:11:00,-999.0,-99.9,30.31,WNW,302,13.0,20.0,-999,-99.99,,,-99.99,,2013-02-02 00:11:00,
2013-02-01 19:22:00,-999.0,-99.9,30.32,WNW,290,12.0,17.0,-999,-99.99,,,-99.99,,2013-02-02 00:22:00,
2013-02-01 19:32:00,25.0,-99.9,30.33,WNW,302,13.0,21.0,-999,-99.99,,,-99.99,,2013-02-02 00:32:00,
2013-02-01 19:42:00,25.0,-99.9,30.33,NW,304,13.0,17.0,-999,-99.99,,,-99.99,,2013-02-02 00:42:00,
2013-02-01 19:52:00,25.0,-99.9,30.33,North,-999,-999.0,-999.0,-999,-99.99,,,-99.99,,2013-02-02 00:52:00,
2013-02-01 20:03:00,25.0,-99.9,30.33,NW,309,13.0,22.0,-999,-99.99,,,-99.99,,2013-02-02 01:03:00,
2013-02-01 20:11:00,24.0,-99.9,30.33,North,-999,-999.0,-999.0,-999,-99.99,,,-99.99,,2013-02-02 01:11:00,
2013-02-01 20:22:00,-999.0,-99.9,30.33,WNW,301,20.0,24.0,-999,-99.99,,,-99.99,,2013-02-02 01:22:00,
2013-02-01 20:32:00,24.0,-99.9,30.35,WNW,292,11.0,17.0,-999,-99.99,,,-99.99,,2013-02-02 01:32:00,
2013-02-01 20:42:00,24.0,-99.9,30.35,North,-999,-999.0,-999.0,-999,-99.99,,,-99.99,,2013-02-02 01:42:00,
2013-02-01 20:52:00,24.0,-99.9,30.35,North,-999,-999.0,-999.0,-999,-99.99,,,-99.99,,2013-02-02 01:52:00,
2013-02-01 21:01:00,24.0,-99.9,30.35,NW,308,15.0,19.0,-999,-99.99,,,-99.99,,2013-02-02 02:01:00,
2013-02-01 21:11:00,24.0,-99.9,30.35,WNW,300,13.0,20.0,-999,-99.99,,,-99.99,,2013-02-02 02:11:00,
2013-02-01 21:22:00,24.0,-99.9,30.36,North,-999,-999.0,-999.0,-999,-99.99,,,-99.99,,2013-02-02 02:22:00,
2013-02-01 21:32:00,24.0,-99.9,30.36,WNW,295,8.0,12.0,-999,-99.99,,,-99.99,,2013-02-02 02:32:00,
2013-02-01 21:42:00,24.0,-99.9,30.36,North,-999,-999.0,-999.0,-999,-99.99,,,-99.99,,2013-02-02 02:42:00,
2013-02-01 21:52:00,23.0,-99.9,30.37,North,-999,-999.0,-999.0,-999,-99.99,,,-99.99,,2013-02-02 02:52:00,
2013-02-01 22:02:00,23.0,-99.9,30.37,NW,305,11.0,17.0,-999,-99.99,,,-99.99,,2013-02-02 03:02:00,
2013-02-01 22:11:00,23.0,-99.9,30.38,WNW,284,9.0,13.0,-999,-99.99,,,-99.99,,2013-02-02 03:11:00,
2013-02-01 22:22:00,-999.0,-99.9,30.38,WNW,288,9.0,18.0,-999,-99.99,,,-99.99,,2013-02-02 03:22:00,
2013-02-01 22:32:00,23.0,-99.9,30.37,WNW,295,11.0,18.0,-999,-99.99,,,-99.99,,2013-02-02 03:32:00,
2013-02-01 22:42:00,23.0,-99.9,30.39,WNW,285,11.0,15.0,-999,-99.99,,,-99.99,,2013-02-02 03:42:00,
2013-02-01 22:52:00,-999.0,-99.9,30.39,WNW,300,9.0,17.0,-999,-99.99,,,-99.99,,2013-02-02 03:52:00,
2013-02-01 23:02:00,23.0,-99.9,30.38,NW,319,14.0,17.0,-999,-99.99,,,-99.99,,2013-02-02 04:02:00,
2013-02-01 23:11:00,-999.0,-99.9,30.39,NW,308,15.0,21.0,-999,-99.99,,,-99.99,,2013-02-02 04:11:00,
2013-02-01 23:22:00,-999.0,-99.9,30.39,NW,311,11.0,15.0,-999,-99.99,,,-99.99,,2013-02-02 04:22:00,
2013-02-01 23:33:00,22.0,-99.9,30.40,WNW,289,7.0,12.0,-999,-99.99,,,-99.99,,2013-02-02 04:33:00,
2013-02-01 23:42:00,22.0,-99.9,30.40,North,-999,-999.0,-999.0,-999,-99.99,,,-99.99,,2013-02-02 04:42:00,
2013-02-01 23:52:00,-999.0,-99.9,30.40,WNW,295,12.0,14.0,-999,-99.99,,,-99.99,,2013-02-02 04:52:00,